User: anonymous   Login
Location: Ottawa
(45.4167°N, 75.7000°W)
Time: 11:43:19
(UTC-05:00)
Language:

N. Korean satellite - Orbit

View from above orbital plane
View from above orbital plane
View from above satellite
View from above satellite

Ground track
Ground track

The orbit data is extracted from the following two-line orbital elements,

1 39026U 12072A   17346.91849015 +.00001515 +00000-0 +60202-4 0  9996
2 39026 097.2162 358.6504 0038124 263.7125 095.9770 15.26182665277188
Epoch (UTC): 12 December 2017 22:02:37
Eccentricity: 0.0038124
inclination: 97.2162°
perigee height: 461 km
apogee height: 513 km
right ascension of ascending node: 358.6504°
argument of perigee: 263.7125°
revolutions per day: 15.26182665
mean anomaly at epoch: 95.9770°
orbit number at epoch: 27718

The dashed part of the orbit path shows where the satellite is in the earth's shadow,  

DLR